WIIIWALL

Guest
Details From WIII - Jakarta Sukarno-hatta Intl
To WALL - Balikpapan/sepinggan
Flight Number -
Tags Generated
Created
Modified
Stats Distance 679 nm / 1,258 km
Max Altitude 0 ft / 0 m
Waypoints 3
Social Downloads 2
Likes 0
Share VATSIM

Download

Looking for another format? Having issues loading an existing format? Contact us
Advertisement - Login to hide

Notes

Generated

Route

WIII KUTAI WALL

ID Type Via Altitude Latitude Longitude Leg Dist Tot Dist Heading (true) Name
O WIII APT - 0 ft / 0 m -6.12106˚ 106.63876˚ - 0 nm - -
KUTAI FIX - 0 ft / 0 m -1.33986˚ 116.70870˚ 668 nm 668 nm 65° / 64° -
O WALL APT - 0 ft / 0 m -1.27266˚ 116.88415˚ 11 nm 679 nm 69° / 69° -

Altitude Profile

Advertisement - Login to hide

Weather


0- 5 10 15 20 25 30 35+ Temperature / ° C

Clouds and Precipitation
Forecast for 2017-12-13 06:00 UTC. Updated 15 minutes ago

Ground ~20,000 ft ~40,000 ft Winds

WIII

Details ICAO WIII (CGK)
Name Jakarta Sukarno-Hatta Intl
Region Indonesia
Timezone Asia/Jakarta (UTC+7.0)
Stats Elevation 34 ft / 10 m (AMSL)
Location -6.125743° 106.656405°
Runways 2
Magnetic Variation 0.630° E

METAR

WIII 130330Z 24013KT 7000 -RA SCT020 27/24 Q1012 NOSIG

Decode

TAF

Not found

Departure Runways

ID Width Length Bearing (true) Bearing (mag) Surface Threshold Offset Overrun Length
07L 197 ft / 60 m 11,823 ft / 3,604 m 68.13° 67.50° Concrete 0 ft / 0 m 200 ft / 61 m
07R 197 ft / 60 m 12,024 ft / 3,665 m 68.12° 67.49° Concrete 0 ft / 0 m 200 ft / 61 m
25L 197 ft / 60 m 12,024 ft / 3,665 m 248.12° 247.49° Concrete 0 ft / 0 m 200 ft / 61 m
25R 197 ft / 60 m 11,823 ft / 3,604 m 248.12° 247.49° Concrete 0 ft / 0 m 200 ft / 61 m

WALL

Details ICAO WALL (BPN)
Name Balikpapan/Sepinggan
Region Indonesia
Timezone Asia/Makassar (UTC+8.0)
Stats Elevation 12 ft / 4 m (AMSL)
Location -1.268272° 116.894478°
Runways 1
Magnetic Variation 0.474° E

METAR

WALL 130300Z 23008KT 9999 FEW020 30/25 Q1011 NOSIG

Decode

TAF

Not found

Destination Runways

ID Width Length Bearing (true) Bearing (mag) Surface Threshold Offset Overrun Length
07 148 ft / 45 m 8,188 ft / 2,496 m 66.97° 66.50° Asphalt 0 ft / 0 m 197 ft / 60 m
25 148 ft / 45 m 8,188 ft / 2,496 m 246.97° 246.50° Asphalt 0 ft / 0 m 197 ft / 60 m

Approach Navaids

Runway Type Ident Frequency Range Bearing (true) Bearing (mag) Slope Elevation
25 Localiser IBPN 110.90 MHz 18 nm / 33 km 247.07° 246.59° - 12 ft / 4 m (AMSL)
25 Glidescope IBPN 110.90 MHz 10 nm / 19 km 246.97° 246.50° 3.00° 12 ft / 4 m (AMSL)

Popular Alternatives